Location: Unspecified
(0.0000°N, 0.0000°E)
Time: 16:31:27
(UTC+00:00)

Courier 1B Rocket - Pass Details

Date: 13 April 2021
Orbit: 920 x 1202 km, 28.3° (Epoch: 14 May)

Event Time Altitude Azimuth Distance (km) Brightness Sun altitude
Rises 20:13:59 0° 270° (W) 3,740 9.1 -32.9°
Reaches altitude 10° 20:17:11 10° 284° (WNW) 2,837 8.2 -33.7°
Maximum altitude 20:22:34 24° 335° (NNW) 2,087 7.0 -35.0°
Enters shadow 20:25:05 20° 3° (N) 2,312 7.0 -35.6°
